FW1856 Vancouver CA current weather conditions

sailwx.info

Wind from 113

Air temperature 10.6° C
Dewpoint 9.0° C

Last reported at 2020-May-31 13:01 UTC.
Time now 2020-May-31 14:02 UTC

Location: N 49°15' W 123°08'.
View on Google Maps.

See reports from other nearby stations

  
Tides and Currents Weather Stations Pressure Air Temp Water Temp Dewpoint Dewpoint Depression Visibility Wind Speed Wind Dir Waves Ship Positions
date/time (UTC)wind fromknots sea level pressurealtimeterstation pressurevisibilityair tempwater tempwave heightnotes
2020-May-31 13:01 113 10.6
2020-May-31 12:51 068 10.6
2020-May-31 12:41 090 10.6
2020-May-31 12:31 068 10.6
2020-May-31 12:21 068 10.6
2020-May-31 12:11 090 10.6
2020-May-31 12:01 023 10.6
2020-May-31 11:51 113 10.6
2020-May-31 11:41 090 10.6
2020-May-31 11:31 090 10.6
2020-May-31 11:21 090 10.0
2020-May-31 11:11 090 10.0
2020-May-31 11:01 113 10.0
2020-May-31 10:51 068 10.6
2020-May-31 10:41 068 10.0
2020-May-31 10:31 090 10.0
2020-May-31 10:21 068 10.0
2020-May-31 10:11 090 10.0
2020-May-31 10:01 068 10.0
2020-May-31 09:51 113 10.0
2020-May-31 09:41 113 10.0
2020-May-31 09:31 135 10.0
2020-May-31 09:21 090 10.0
2020-May-31 09:11 068 10.0
2020-May-31 09:01 090 10.0
2020-May-31 08:51 090 10.0
2020-May-31 08:41 068 10.0
2020-May-31 08:31 068 10.6
2020-May-31 08:21 090 10.6
2020-May-31 08:11 113 10.6
2020-May-31 08:01 090 10.6
2020-May-31 07:51 045 10.6
2020-May-31 07:41 113 10.6
2020-May-31 07:31 090 10.6
2020-May-31 07:21 090 10.6
2020-May-31 07:11 090 10.6
2020-May-31 07:01 090 10.6
2020-May-31 06:51 090 10.6
2020-May-31 06:41 113 10.6
2020-May-31 06:31 068 11.1
2020-May-31 06:21 090 11.1
2020-May-31 06:11 113 11.1
2020-May-31 06:01 090 11.1
2020-May-31 05:51 090 11.7
2020-May-31 05:41 113 11.7
2020-May-31 05:31 113 11.7
2020-May-31 05:21 090 11.7
2020-May-31 05:11 158 11.7
2020-May-31 05:01 113 11.7
2020-May-31 04:51 090 11.7
2020-May-31 04:41 090 11.7
2020-May-31 04:31 068 11.7
2020-May-31 04:21 068 11.7
2020-May-31 04:11 090 11.7
2020-May-31 04:01 068 11.7
2020-May-31 03:51 158 11.7
2020-May-31 03:41 113 11.7
2020-May-31 03:31 158 12.2
2020-May-31 03:21 158 12.2
2020-May-31 03:11 090 12.8
2020-May-31 03:01 180 12.2
2020-May-31 02:51 135 12.8
2020-May-31 02:41 135 12.8
2020-May-31 02:31 113 12.8
2020-May-31 02:21 135 12.8
2020-May-31 02:11 113 13.3
2020-May-31 02:01 203 12.8
2020-May-31 01:51 135 13.3
2020-May-31 01:41 225 13.3
2020-May-31 01:31 203 13.3
2020-May-31 01:21 225 13.3
2020-May-31 01:11 203 13.3
2020-May-31 01:01 248 13.3
2020-May-31 00:51 203 13.3
2020-May-31 00:41 225 13.9
2020-May-31 00:31 315 13.9
2020-May-31 00:21 315 13.9
2020-May-31 00:11 338 13.9
2020-May-31 00:01 338 13.9
2020-May-30 23:51 293 13.3
2020-May-30 23:41 293 13.3
2020-May-30 23:31 270 12.8
2020-May-30 23:21 248 12.8
2020-May-30 23:11 203 12.8
2020-May-30 23:01 180 12.8
2020-May-30 22:51 180 12.8
2020-May-30 22:41 248 12.8
2020-May-30 22:31 225 12.8
2020-May-30 22:21 248 12.8
2020-May-30 22:11 225 12.8
2020-May-30 22:01 248 13.3
2020-May-30 21:51 248 13.9
2020-May-30 21:41 203 14.4
2020-May-30 21:31 225 14.4
2020-May-30 21:21 113 14.4
2020-May-30 21:11 158 14.4
2020-May-30 21:01 180 14.4
2020-May-30 20:51 090 14.4
2020-May-30 20:41 225 14.4
2020-May-30 20:31 068 14.4
2020-May-30 20:21 158 15.0
2020-May-30 20:11 113 14.4
2020-May-30 20:01 113 14.4
2020-May-30 19:51 158 13.9
2020-May-30 19:41 113 13.9
2020-May-30 19:31 090 13.9
2020-May-30 19:21 090 13.9
2020-May-30 19:11 090 13.9
2020-May-30 19:01 113 13.9
2020-May-30 18:51 090 13.9
2020-May-30 18:41 113 13.9
2020-May-30 18:31 068 14.4
2020-May-30 18:21 090 14.4
2020-May-30 18:11 090 14.4
2020-May-30 18:01 068 15.0
2020-May-30 17:51 113 15.0
2020-May-30 17:41 090 15.0
2020-May-30 17:31 113 15.6
2020-May-30 17:21 135 15.6
2020-May-30 17:11 113 16.1
2020-May-30 17:01 023 16.1
2020-May-30 16:51 338 16.1
2020-May-30 16:41 225 16.1
2020-May-30 16:31 248 16.1
2020-May-30 16:21 248 16.1
2020-May-30 16:11 203 16.1
2020-May-30 16:01 248 16.1
2020-May-30 15:51 293 16.1
2020-May-30 15:41 225 16.1
2020-May-30 15:31 338 16.1
2020-May-30 15:21 315 15.6
2020-May-30 15:11 338 15.6
2020-May-30 15:01 338 15.6
2020-May-30 14:51 248 15.0
2020-May-30 14:41 180 14.4
2020-May-30 14:31 225 14.4
2020-May-30 14:21 180 14.4
2020-May-30 14:11 203 14.4
2020-May-30 14:01 113 14.4
2020-May-30 13:51 135 13.9
2020-May-30 13:41 113 13.9
2020-May-30 13:31 180 13.9
2020-May-30 13:21 090 13.3
2020-May-30 13:11 113 13.9
2020-May-30 13:01 068 13.9
2020-May-30 12:51 180 13.3
2020-May-30 12:41 203 13.3
2020-May-30 12:31 180 13.3
2020-May-30 12:21 225 13.9
2020-May-30 12:11 090 13.9
2020-May-30 12:01 090 13.9
2020-May-30 11:51 135 13.9
2020-May-30 11:41 113 13.9
2020-May-30 11:31 090 13.9
2020-May-30 11:21 180 13.9
2020-May-30 11:11 180 13.9
2020-May-30 11:01 135 13.9
2020-May-30 10:51 203 13.9
2020-May-30 10:41 203 13.9
2020-May-30 10:31 180 14.4
2020-May-30 10:21 180 14.4
2020-May-30 10:11 180 14.4
2020-May-30 10:01 135 14.4
2020-May-30 09:51 180 14.4
2020-May-30 09:41 203 15.0
2020-May-30 09:31 113 15.0
2020-May-30 09:21 090 15.0
2020-May-30 09:11 158 15.6
2020-May-30 09:01 135 15.6
2020-May-30 08:51 113 15.6
2020-May-30 08:41 090 16.1
2020-May-30 08:31 090 16.1
2020-May-30 08:21 113 16.7
2020-May-30 08:11 113 16.7
2020-May-30 08:01 203 16.7
2020-May-30 07:51 203 16.7
2020-May-30 07:41 203 16.7
2020-May-30 07:31 203 16.7
2020-May-30 07:21 203 16.7
2020-May-30 07:11 248 16.7
2020-May-30 07:01 225 16.7
2020-May-30 06:51 248 16.7
2020-May-30 06:41 225 16.7
2020-May-30 06:31 248 17.2
2020-May-30 06:21 248 17.2
2020-May-30 06:11 248 17.2
2020-May-30 06:01 248 17.2
2020-May-30 05:51 248 17.2
2020-May-30 05:41 203 17.2
2020-May-30 05:31 203 17.2
2020-May-30 05:21 225 17.8
2020-May-30 05:11 203 18.3
2020-May-30 05:01 315 18.3
2020-May-30 04:51 338 18.3
2020-May-30 04:41 338 18.3
2020-May-30 04:31 338 18.3
2020-May-30 04:21 315 18.9
2020-May-30 04:11 293 18.9
2020-May-30 04:01 338 19.4
2020-May-30 03:51 248 20.0
2020-May-30 03:41 225 20.0
2020-May-30 03:31 225 20.0
2020-May-30 03:21 270 20.6
2020-May-30 03:11 315 20.6
2020-May-30 03:01 360 20.6
2020-May-30 02:51 360 21.1
2020-May-30 02:41 360 21.1
2020-May-30 02:31 293 21.7
2020-May-30 02:21 023 21.7
2020-May-30 02:11 360 21.7
2020-May-30 02:01 315 21.7
2020-May-30 01:51 360 21.1
2020-May-30 01:41 360 21.7
2020-May-30 01:31 338 21.7
2020-May-30 01:21 315 21.7
2020-May-30 01:11 023 22.2
2020-May-30 01:01 360 22.2
2020-May-30 00:51 360 22.2
2020-May-30 00:41 360 22.2
2020-May-30 00:31 360 21.7
2020-May-30 00:21 023 21.7
2020-May-30 00:11 338 20.6
2020-May-30 00:01 293 20.6
2020-May-29 23:51 315 21.1
2020-May-29 23:41 315 21.1
2020-May-29 23:31 315 20.6
2020-May-29 23:21 315 20.6
2020-May-29 23:11 338 20.6
2020-May-29 23:01 293 21.1
2020-May-29 22:51 315 21.1
2020-May-29 22:41 023 21.7
2020-May-29 22:31 338 21.1
2020-May-29 22:21 338 21.1
2020-May-29 22:11 360 21.1
2020-May-29 22:01 360 21.1
2020-May-29 21:51 315 21.1
2020-May-29 21:41 315 21.1
2020-May-29 21:31 338 20.6
2020-May-29 21:21 315 21.7
2020-May-29 21:11 338 21.7
2020-May-29 21:01 360 21.7
2020-May-29 20:51 293 21.1
2020-May-29 20:41 293 21.1
2020-May-29 20:31 315 21.1
2020-May-29 20:21 293 21.1
2020-May-29 20:11 293 21.1
2020-May-29 20:01 293 20.6
2020-May-29 19:51 315 20.6
2020-May-29 19:41 315 20.6
2020-May-29 19:31 315 20.6
2020-May-29 19:21 315 21.1
2020-May-29 19:11 360 21.7
2020-May-29 19:01 360 22.2
2020-May-29 18:51 338 22.2
2020-May-29 18:41 315 21.7
2020-May-29 18:31 315 21.1
2020-May-29 18:21 338 20.6
2020-May-29 18:11 293 20.6
2020-May-29 18:01 203 20.0
2020-May-29 17:51 248 19.4
2020-May-29 17:41 225 20.0
2020-May-29 17:31 023 20.6
2020-May-29 17:21 338 20.0
2020-May-29 17:11 338 19.4
2020-May-29 17:01 293 19.4
2020-May-29 16:51 270 19.4
2020-May-29 16:41 248 19.4
2020-May-29 16:31 270 18.9
2020-May-29 16:21 045 18.9
2020-May-29 16:11 248 18.3
2020-May-29 16:01 203 18.3
2020-May-29 15:51 090 18.3
2020-May-29 15:41 203 18.3
2020-May-29 15:31 113 18.3
2020-May-29 15:21 203 17.8
2020-May-29 15:11 113 18.3
2020-May-29 15:01 225 17.8
2020-May-29 14:51 203 17.8
2020-May-29 14:41 090 18.3
2020-May-29 14:31 113 17.8
2020-May-29 14:21 113 17.8
2020-May-29 14:11 113 17.2
2020-May-29 14:01 090 17.2